Location: Borealis Mine
(38.3824°N, 118.7610°W)
Time: 16:34:15
(UTC+00:00)

FALCON 9 DEB - Pass Details

Date: 18 September 2020
Orbit: 426 x 441 km, 53.0° (Epoch: 19 October)

Event Time Altitude Azimuth Distance (km) Brightness Sun altitude
Exits shadow 12:44:37 12° 220° (SW) 1,371 5.2 -11.6°
Maximum altitude 12:47:38 71° 137° (SE) 454 3.3 -11.0°
Drops below altitude 10° 12:51:03 10° 52° (NE) 1,529 7.0 -10.3°
Sets 12:53:11 0° 51° (NE) 2,402 8.1 -9.9°
